Location: Muenchen
(48.1800°N, 11.5800°E)
Time: 19:59:09
(UTC+02:00)

Cosmos 1455 - Visible Passes

Search period start: 29 August 2016 00:00
Search period end: 08 September 2016 00:00
Orbit: 505 x 528 km, 82.5° (Epoch: 28 August)

Date Brightness Start Highest point End Pass type
(mag) Time Alt. Az. Time Alt. Az. Time Alt. Az.
29 Aug 4.9 03:02:33 13° E 03:03:22 14° E 03:05:24 10° NE visible
29 Aug 2.4 04:37:36 40° SW 04:38:38 53° WNW 04:42:29 10° N visible
30 Aug 5.1 02:48:19 12° E 02:48:43 12° E 02:50:08 10° ENE visible
30 Aug 2.2 04:23:21 56° WSW 04:23:54 64° W 04:27:48 10° N visible
31 Aug 2.1 04:09:06 76° W 04:09:10 77° W 04:13:06 10° N visible
01 Sep 2.3 03:54:48 73° NNE 03:54:48 73° NNE 03:58:22 10° N visible
02 Sep 2.9 03:40:29 55° NNE 03:40:29 55° NNE 03:43:38 10° NNE visible
02 Sep 4.4 05:15:32 11° WNW 05:16:00 11° WNW 05:17:13 10° NW visible
03 Sep 3.5 03:26:09 41° NE 03:26:09 41° NE 03:28:53 10° NNE visible
03 Sep 4.3 05:01:12 13° WNW 05:01:12 13° WNW 05:03:03 10° NW visible
04 Sep 4.0 03:11:47 32° NE 03:11:47 32° NE 03:14:06 10° NNE visible
04 Sep 4.3 04:46:50 15° WNW 04:46:50 15° WNW 04:48:42 10° NNW visible
05 Sep 4.4 02:57:24 25° NE 02:57:24 25° NE 02:59:18 10° NNE visible
05 Sep 4.3 04:32:27 16° NW 04:32:27 16° NW 04:34:13 10° NNW visible
06 Sep 4.8 02:43:01 20° NE 02:43:01 20° NE 02:44:28 10° NNE visible
06 Sep 4.3 04:18:03 17° NW 04:18:03 17° NW 04:19:42 10° NNW visible
07 Sep 5.1 02:28:36 16° NE 02:28:36 16° NE 02:29:36 10° NNE visible
07 Sep 4.3 04:03:39 18° NW 04:03:39 18° NW 04:05:07 10° NNW visible
